• In Schweiz
  • Länderverzeichnis
  • Für 7 Tage
  • Wassertemperatur
  • Satellitenkarten
  • Wetterkarte
  • Widgets
  • user-avatar
    Anmelden

    Stündliche Wetter Serednje

    Heute, 21 April, Samstag

    Zeit Temperatur Niederschläge Wind Luftdruck Luftfeuchtigkeit
    00:00 +10°C° 0 mm 1 m/S 742 mmHg 76%
    01:00 +9°C° 0 mm 1 m/S 741 mmHg 77%
    02:00 +8°C° 0 mm 2 m/S 741 mmHg 78%
    03:00 +8°C° 0 mm 2 m/S 741 mmHg 78%
    04:00 +7°C° 0 mm 2 m/S 741 mmHg 79%
    05:00 +7°C° 0 mm 2 m/S 740 mmHg 79%
    06:00 +9°C° 0 mm 2 m/S 740 mmHg 73%
    07:00 +10°C° 0 mm 2 m/S 739 mmHg 67%
    08:00 +12°C° 0 mm 3 m/S 739 mmHg 62%
    09:00 +16°C° 0 mm 3 m/S 739 mmHg 55%
    10:00 +18°C° 0 mm 4 m/S 738 mmHg 48%
    11:00 +20°C° 0 mm 4 m/S 738 mmHg 41%
    12:00 +22°C° 0 mm 5 m/S 738 mmHg 39%
    13:00 +23°C° 0 mm 6 m/S 737 mmHg 38%
    14:00 +24°C° 0 mm 6 m/S 737 mmHg 37%
    15:00 +24°C° 0 mm 6 m/S 736 mmHg 41%
    16:00 +23°C° 0 mm 6 m/S 736 mmHg 46%
    17:00 +23°C° 0 mm 6 m/S 735 mmHg 50%
    18:00 +21°C° 0 mm 5 m/S 735 mmHg 54%
    19:00 +19°C° 0 mm 5 m/S 736 mmHg 58%
    20:00 +17°C° 0 mm 5 m/S 736 mmHg 62%
    21:00 +16°C° 0 mm 5 m/S 736 mmHg 64%
    22:00 +16°C° 0 mm 5 m/S 736 mmHg 66%
    23:00 +15°C° 0 mm 5 m/S 736 mmHg 68%

    Morgen, 22 April, Sonntag

    Zeit Temperatur Niederschläge Wind Luftdruck Luftfeuchtigkeit
    00:00 +14°C° 0 mm 4 m/S 736 mmHg 71%
    01:00 +13°C° 0 mm 4 m/S 737 mmHg 74%
    02:00 +13°C° 0 mm 3 m/S 737 mmHg 78%
    03:00 +12°C° 0 mm 3 m/S 737 mmHg 78%
    04:00 +11°C° 0 mm 3 m/S 737 mmHg 78%
    05:00 +10°C° 0 mm 2 m/S 737 mmHg 78%
    06:00 +11°C° 0 mm 3 m/S 737 mmHg 72%
    07:00 +11°C° 0 mm 3 m/S 737 mmHg 66%
    08:00 +12°C° 0 mm 4 m/S 737 mmHg 60%
    09:00 +13°C° 0 mm 4 m/S 737 mmHg 56%
    10:00 +14°C° 0 mm 4 m/S 737 mmHg 52%
    11:00 +16°C° 0 mm 5 m/S 737 mmHg 47%
    12:00 +16°C° 0 mm 5 m/S 737 mmHg 46%
    13:00 +17°C° 0 mm 5 m/S 737 mmHg 44%
    14:00 +17°C° 0 mm 5 m/S 736 mmHg 43%
    15:00 +18°C° 0 mm 4 m/S 736 mmHg 45%
    16:00 +18°C° 0 mm 4 m/S 736 mmHg 46%
    17:00 +18°C° 0 mm 4 m/S 736 mmHg 47%
    18:00 +16°C° 0 mm 3 m/S 736 mmHg 54%
    19:00 +14°C° 0 mm 3 m/S 736 mmHg 60%
    20:00 +13°C° 0 mm 2 m/S 736 mmHg 66%
    21:00 +12°C° 0 mm 2 m/S 736 mmHg 67%
    22:00 +12°C° 0 mm 1 m/S 736 mmHg 68%
    23:00 +11°C° 0 mm 1 m/S 736 mmHg 70%

    übermorgen, 23 April, Montag

    Zeit Temperatur Niederschläge Wind Luftdruck Luftfeuchtigkeit
    00:00 +11°C° 0 mm 1 m/S 736 mmHg 71%
    01:00 +10°C° 0 mm 1 m/S 736 mmHg 71%
    02:00 +10°C° 0 mm 1 m/S 736 mmHg 72%
    03:00 +10°C° 0 mm 1 m/S 736 mmHg 73%
    04:00 +9°C° 0 mm 1 m/S 736 mmHg 74%
    05:00 +9°C° 0 mm 1 m/S 736 mmHg 75%
    06:00 +10°C° 0 mm 1 m/S 736 mmHg 71%
    07:00 +12°C° 0 mm 1 m/S 736 mmHg 66%
    08:00 +13°C° 0 mm 1 m/S 736 mmHg 62%
    09:00 +15°C° 0 mm 1 m/S 736 mmHg 56%
    10:00 +17°C° 0 mm 2 m/S 736 mmHg 51%
    11:00 +18°C° 0 mm 2 m/S 736 mmHg 46%
    12:00 +19°C° 0 mm 2 m/S 736 mmHg 44%
    13:00 +20°C° 0 mm 2 m/S 735 mmHg 41%
    14:00 +21°C° 0 mm 2 m/S 735 mmHg 39%
    15:00 +21°C° 0 mm 2 m/S 735 mmHg 40%
    16:00 +22°C° 0 mm 1 m/S 734 mmHg 41%
    17:00 +22°C° 0 mm 1 m/S 734 mmHg 41%
    18:00 +20°C° 0 mm 1 m/S 734 mmHg 47%
    19:00 +17°C° 0 mm 2 m/S 733 mmHg 52%
    20:00 +16°C° 0 mm 2 m/S 733 mmHg 58%
    21:00 +15°C° 0,3 mm 2 m/S 733 mmHg 63%
    22:00 +14°C° 0,3 mm 3 m/S 733 mmHg 68%
    23:00 +14°C° 0,3 mm 3 m/S 733 mmHg 73%

    24 April, Dienstag

    Zeit Temperatur Niederschläge Wind Luftdruck Luftfeuchtigkeit
    00:00 +13°C° 0,4 mm 3 m/S 733 mmHg 78%
    01:00 +13°C° 0,4 mm 3 m/S 733 mmHg 84%
    02:00 +13°C° 0,4 mm 3 m/S 732 mmHg 89%
    03:00 +13°C° 0 mm 3 m/S 732 mmHg 91%
    04:00 +13°C° 0 mm 4 m/S 733 mmHg 93%
    05:00 +12°C° 0 mm 4 m/S 733 mmHg 95%
    06:00 +13°C° 0,5 mm 4 m/S 733 mmHg 93%
    07:00 +13°C° 0,5 mm 4 m/S 734 mmHg 92%
    08:00 +13°C° 0,5 mm 5 m/S 734 mmHg 90%
    09:00 +14°C° 0,4 mm 5 m/S 735 mmHg 84%
    10:00 +14°C° 0,4 mm 5 m/S 735 mmHg 79%
    11:00 +15°C° 0,4 mm 5 m/S 736 mmHg 73%
    12:00 +16°C° 0 mm 5 m/S 736 mmHg 66%
    13:00 +17°C° 0 mm 5 m/S 736 mmHg 60%
    14:00 +19°C° 0 mm 5 m/S 736 mmHg 53%
    15:00 +17°C° 0 mm 5 m/S 736 mmHg 54%
    16:00 +17°C° 0 mm 5 m/S 735 mmHg 55%
    17:00 +17°C° 0 mm 5 m/S 735 mmHg 56%
    18:00 +15°C° 0 mm 4 m/S 735 mmHg 63%
    19:00 +14°C° 0 mm 3 m/S 735 mmHg 69%
    20:00 +13°C° 0 mm 2 m/S 736 mmHg 76%
    21:00 +13°C° 0 mm 2 m/S 736 mmHg 77%
    22:00 +13°C° 0 mm 2 m/S 736 mmHg 78%
    23:00 +12°C° 0 mm 2 m/S 736 mmHg 80%

    25 April, Mittwoch

    Zeit Temperatur Niederschläge Wind Luftdruck Luftfeuchtigkeit
    00:00 +12°C° 0 mm 2 m/S 736 mmHg 80%
    01:00 +12°C° 0 mm 2 m/S 736 mmHg 81%
    02:00 +11°C° 0 mm 3 m/S 736 mmHg 81%
    03:00 +11°C° 0 mm 3 m/S 736 mmHg 81%
    04:00 +11°C° 0 mm 3 m/S 736 mmHg 82%
    05:00 +11°C° 0 mm 3 m/S 736 mmHg 82%
    06:00 +12°C° 0 mm 3 m/S 736 mmHg 79%
    07:00 +15°C° 0 mm 2 m/S 736 mmHg 75%
    08:00 +16°C° 0 mm 2 m/S 736 mmHg 71%
    09:00 +18°C° 0 mm 3 m/S 736 mmHg 64%
    10:00 +20°C° 0 mm 4 m/S 736 mmHg 58%
    11:00 +22°C° 0 mm 4 m/S 736 mmHg 51%
    12:00 +23°C° 0 mm 5 m/S 736 mmHg 48%
    13:00 +23°C° 0 mm 5 m/S 735 mmHg 46%
    14:00 +24°C° 0 mm 6 m/S 735 mmHg 43%
    15:00 +24°C° 0 mm 6 m/S 735 mmHg 47%
    16:00 +25°C° 0 mm 5 m/S 734 mmHg 50%
    17:00 +23°C° 0 mm 5 m/S 734 mmHg 54%
    18:00 +21°C° 0 mm 5 m/S 733 mmHg 60%
    19:00 +20°C° 0 mm 4 m/S 733 mmHg 66%
    20:00 +18°C° 0 mm 4 m/S 733 mmHg 72%
    21:00 +18°C° 0,1 mm 4 m/S 733 mmHg 73%
    22:00 +17°C° 0,1 mm 5 m/S 733 mmHg 74%
    23:00 +16°C° 0,1 mm 5 m/S 733 mmHg 75%

    26 April, Donnerstag

    Zeit Temperatur Niederschläge Wind Luftdruck Luftfeuchtigkeit
    00:00 +16°C° 0,1 mm 5 m/S 733 mmHg 75%
    01:00 +16°C° 0,1 mm 5 m/S 733 mmHg 74%
    02:00 +16°C° 0,1 mm 5 m/S 733 mmHg 74%
    03:00 +16°C° 0,1 mm 5 m/S 733 mmHg 73%
    04:00 +16°C° 0,1 mm 5 m/S 733 mmHg 71%
    05:00 +16°C° 0,1 mm 5 m/S 732 mmHg 70%
    06:00 +16°C° 0 mm 6 m/S 733 mmHg 70%
    07:00 +17°C° 0 mm 7 m/S 733 mmHg 70%
    08:00 +18°C° 0 mm 7 m/S 734 mmHg 70%
    09:00 +18°C° 0 mm 7 m/S 734 mmHg 66%
    10:00 +18°C° 0 mm 7 m/S 735 mmHg 63%
    11:00 +20°C° 0 mm 7 m/S 736 mmHg 59%
    12:00 +20°C° 0,1 mm 6 m/S 736 mmHg 59%
    13:00 +20°C° 0,1 mm 6 m/S 736 mmHg 58%
    14:00 +20°C° 0,1 mm 5 m/S 736 mmHg 57%
    15:00 +19°C° 0 mm 5 m/S 736 mmHg 57%
    16:00 +19°C° 0 mm 4 m/S 736 mmHg 58%
    17:00 +19°C° 0 mm 4 m/S 736 mmHg 58%
    18:00 +17°C° 0 mm 3 m/S 736 mmHg 64%
    19:00 +16°C° 0 mm 2 m/S 736 mmHg 69%
    20:00 +14°C° 0 mm 1 m/S 736 mmHg 75%
    21:00 +14°C° 0 mm 1 m/S 736 mmHg 76%
    22:00 +13°C° 0 mm 2 m/S 736 mmHg 77%
    23:00 +13°C° 0 mm 2 m/S 736 mmHg 78%
    Mehr zeigen